Wetbulb
38.57 40.94 41.68 41.12 41.36 42.21 39.54 40.26 39.38 42.76 39.34 45.31 48.18 50.34 51.45 53.77 56.07 55.12 55.48 56.41 58.99 59.70 61.01 62.52 63.47 65.14 65.33 65.35 64.90 67.60 66.82 64.45 63.89 64.24 63.65 64.10 63.87 64.17 65.26 66.45 67.33 68.61 68.55 68.70
36.56 41.57 40.89 39.75 42.28 43.17 42.89 46.18 44.14 46.00 45.42 50.58 51.93 52.78 52.53 52.68 53.30 53.19 54.59 55.67 58.39 61.36 61.97 62.34 63.82 63.61 64.55 64.27 65.13 66.11 65.22 64.62 64.82 64.26 64.41 63.84 63.76 63.79 65.43 66.90 66.52 65.65 66.32 67.13
32.30 37.49 38.97 34.83 40.32 43.65 46.51 48.09 46.94 43.39 46.95 51.16 50.93 50.90 51.56 52.19 52.83 53.43 54.47 55.96 58.99 60.80 61.56 62.43 63.11 64.53 64.48 64.49 65.42 65.38 64.86 65.04 65.13 64.50 63.84 63.52 64.46 65.22 65.13 65.50 65.55 64.98 64.71 64.99
30.53 33.90 28.49 38.28 49.64 50.00 48.45 49.38 50.69 50.35 50.85 51.78 50.62 51.57 52.57 53.94 54.43 55.34 55.79 57.11 59.01 60.90 61.32 61.59 62.60 63.21 64.03 63.72 63.33 63.72 64.23 65.07 64.48 64.23 64.52 64.78 64.94 64.81 65.14 65.51 65.34 65.59 66.23 65.72
30.80 31.05 37.24 44.56 47.96 47.50 45.49 45.27 50.35 50.43 51.43 51.22 51.09 50.71 50.98 55.28 57.97 58.18 58.29 59.13 60.67 60.60 60.39 60.04 60.29 61.68 61.87 61.67 62.21 61.27 61.30 62.61 64.21 64.59 64.34 63.54 62.68 62.92 63.70 64.64 64.78 65.07 66.37 66.46
37.23 34.08 33.55 42.20 50.68 53.01 51.40 42.05 51.04 52.07 50.25 50.08 50.01 44.60 47.76 55.36 58.06 56.43 58.83 60.12 59.62 59.79 59.70 58.76 58.72 59.22 59.19 58.72 57.93 57.81 60.61 60.99 61.99 63.27 63.17 63.72 64.04 63.32 64.13 65.02 65.74 66.05 65.67 67.42
38.22 37.47 40.90 48.22 52.29 53.88 41.68 41.82 51.40 52.14 51.05 49.84 48.21 50.16 53.45 57.52 58.47 58.87 58.74 59.16 59.15 58.33 57.48 57.91 57.88 57.77 56.25 56.56 55.94 57.09 57.85 59.92 60.55 60.94 62.03 62.52 63.65 64.24 64.68 65.29 64.96 65.20 65.40 66.06
36.99 35.29 34.41 52.35 53.24 47.26 47.32 49.98 52.39 53.36 52.70 51.08 52.00 53.38 55.75 56.72 57.77 58.09 58.10 58.68 58.82 57.87 57.76 58.28 57.45 56.51 55.34 55.13 56.18 56.83 56.89 57.13 59.18 59.73 59.59 60.46 60.89 62.56 64.27 64.14 63.76 63.89 64.13 61.76
40.44 39.88 46.55 49.88 50.66 52.86 52.97 51.86 52.95 53.73 54.57 54.27 53.67 54.98 56.80 56.89 57.80 58.36 58.11 58.76 59.04 58.28 57.98 58.41 57.89 56.62 55.80 55.64 56.15 56.58 56.12 55.71 56.17 56.56 56.39 58.96 60.16 59.96 60.48 62.04 62.18 61.85 62.12 60.92
41.96 44.66 47.43 50.22 52.37 54.05 54.66 53.71 54.81 55.47 55.20 55.61 54.79 56.87 56.49 57.11 57.65 57.96 58.51 58.11 58.61 58.66 57.73 57.42 57.72 56.55 56.17 56.58 56.18 55.83 55.46 55.16 55.30 55.50 55.73 56.11 57.05 59.71 59.67 59.49 59.36 59.53 59.54 60.11
42.21 45.60 46.31 49.06 51.38 52.35 54.37 56.16 56.16 56.12 56.50 56.22 55.95 56.39 56.44 56.43 56.74 57.76 58.12 58.10 57.99 57.45 56.95 57.25 57.67 56.93 56.37 56.15 55.57 54.66 54.74 54.47 54.12 54.56 55.33 55.34 55.00 55.54 58.89 59.79 58.14 59.12 59.19 59.18
40.57 44.40 44.51 45.73 50.03 54.31 52.62 54.02 54.37 55.04 54.22 56.57 57.37 56.44 57.14 56.92 57.51 57.65 57.35 57.90 57.39 56.87 56.69 56.78 56.92 56.82 56.55 55.84 54.24 53.67 54.06 53.55 53.19 53.34 54.25 55.23 54.31 54.91 51.33 49.87 46.56 45.48 46.75 53.49
45.24 46.47 46.37 48.53 53.28 54.85 52.91 52.28 54.28 55.41 55.69 56.79 58.61 58.24 58.12 56.98 57.11 56.34 57.52 57.31 56.94 56.42 57.56 57.11 56.47 56.80 56.07 54.68 53.67 53.98 53.44 52.86 52.82 52.72 54.25 54.61 54.58 53.90 55.18 54.50 45.66 44.57 44.57 45.66
46.90 46.47 46.81 51.07 51.36 54.38 53.84 55.40 55.40 56.30 56.21 56.52 57.61 58.82 58.13 57.74 56.85 56.47 57.05 57.16 57.01 57.35 56.51 55.72 56.04 56.16 55.70 53.48 53.90 53.52 52.92 49.94 52.84 54.34 54.84 55.26 56.38 56.31 54.57 53.94 54.38 55.47 47.16 46.46
51.37 49.95 50.33 53.15 53.79 53.99 54.84 54.96 54.22 54.27 54.84 54.59 56.24 56.89 57.26 56.26 56.00 56.21 57.43 57.46 57.19 56.60 55.88 55.54 55.04 55.75 55.64 53.93 54.48 53.63 52.54 52.53 52.54 54.41 54.63 54.86 56.95 57.93 56.76 55.41 54.71 54.75 57.23 51.21
52.06 52.47 52.73 52.65 52.65 53.04 53.77 54.24 53.13 53.77 54.73 55.25 55.11 54.75 56.83 57.35 56.73 56.65 57.70 57.41 56.15 54.68 55.64 56.37 54.84 55.70 55.37 54.02 54.71 54.05 54.19 52.58 51.91 52.96 53.91 54.67 56.12 57.10 57.68 58.09 58.26 58.16 58.26 57.83
50.02 49.90 50.97 51.44 51.86 52.16 52.45 52.95 53.54 53.92 55.13 54.76 55.18 56.27 55.93 56.54 55.08 55.36 56.08 56.47 56.04 56.01 56.44 56.14 55.57 55.73 54.26 53.53 53.67 53.34 53.84 53.51 52.41 51.20 51.27 52.70 53.68 54.86 57.05 57.26 57.19 56.93 57.36 55.58
52.36 52.77 52.84 51.37 50.93 52.01 52.62 52.99 53.82 55.17 54.57 56.30 56.51 56.67 55.49 55.69 54.70 54.94 55.52 56.65 56.34 55.76 55.93 55.55 55.47 55.02 54.24 53.67 53.16 53.26 54.40 54.16 51.92 50.58 50.17 50.67 51.42 52.25 53.80 56.22 56.90 56.37 57.13 55.24
52.89 52.66 54.42 53.40 53.03 53.22 53.17 53.81 54.65 55.16 56.16 56.78 55.72 55.42 55.21 55.22 55.30 55.63 56.59 56.62 55.04 54.36 55.22 56.48 56.02 56.30 54.91 54.76 55.58 53.62 54.47 52.39 50.71 50.05 49.77 49.00 50.49 51.02 51.94 53.82 55.86 56.18 56.60 56.58
53.73 54.18 54.29 54.71 55.40 54.91 53.81 55.54 56.66 56.51 56.82 56.33 55.02 54.44 54.50 54.57 54.07 53.66 53.88 53.62 54.35 54.21 54.91 55.49 56.13 54.79 54.74 53.69 54.28 53.70 51.77 50.61 50.33 49.79 49.61 49.69 49.71 50.11 50.69 47.75 51.65 55.33 56.02 56.34
53.45 54.79 55.24 54.62 55.70 56.03 55.66 55.96 55.90 55.83 56.34 56.03 53.57 53.49 53.85 53.08 54.37 53.79 52.84 52.45 54.62 55.23 55.02 55.40 54.74 54.87 52.90 53.60 53.34 52.45 51.57 51.35 50.57 50.06 50.06 50.13 49.79 50.53 50.75 51.25 51.89 53.55 54.89 55.49
53.20 52.68 54.28 55.55 55.66 55.07 55.83 55.12 55.49 55.62 55.14 54.07 53.86 53.54 53.09 52.75 54.16 55.14 53.97 53.42 53.94 51.32 53.78 54.01 54.19 54.02 54.21 53.76 52.80 51.81 51.04 50.61 50.24 50.58 51.11 50.90 50.34 50.24 50.68 51.20 51.49 53.05 54.51 55.53
49.36 50.47 51.95 53.28 54.80 55.14 55.77 55.22 54.89 54.82 54.51 54.07 53.41 53.21 53.16 52.84 52.93 52.39 52.59 53.71 53.34 51.17 54.61 54.20 51.86 52.13 51.82 53.12 52.62 52.19 51.69 52.07 52.48 52.46 52.20 52.50 52.31 51.35 50.38 50.14 50.42 51.85 52.68 53.83
49.18 49.92 51.25 53.90 52.91 53.29 52.30 53.23 53.34 53.21 52.01 53.50 53.96 54.26 54.10 51.99 51.72 52.55 53.47 51.33 49.80 51.57 53.21 51.98 51.30 50.57 50.85 53.40 53.69 53.92 54.04 54.12 54.00 53.98 54.08 48.45 53.77 53.99 53.85 53.44 52.78 52.97 52.81 52.10
50.15 51.09 51.90 52.04 52.75 52.69 52.71 52.48 51.90 51.45 51.95 51.87 52.17 52.48 52.66 52.20 51.82 51.90 52.72 53.03 50.02 51.50 51.96 49.79 49.39 49.78 51.95 52.29 52.64 53.45 53.86 54.02 53.53 53.32 52.90 52.68 52.62 53.20 54.18 54.36 53.54 51.92 51.65 51.09
51.51 51.80 52.92 53.88 53.53 53.93 53.46 53.54 52.64 53.02 51.63 51.91 51.37 51.31 50.78 51.00 51.75 52.21 51.51 49.75 49.26 47.34 47.19 46.40 46.13 47.21 46.78 46.70 47.68 48.02 48.31 48.58 48.39 49.64 50.12 52.06 52.53 52.76 52.87 53.61 53.61 52.99 51.19 50.54
52.77 49.35 52.19 51.44 51.74 53.10 53.59 52.98 53.07 52.04 51.08 49.56 47.38 47.75 47.30 46.55 45.79 45.82 44.92 45.31 45.11 44.67 44.41 44.26 44.12 43.39 43.88 44.24 44.52 45.07 45.68 45.96 43.51 46.41 48.72 49.18 51.27 52.50 52.67 52.18 51.33 52.20 50.92 49.71
MSLP
1012.59 1012.24 1011.88 1011.53 1011.44 1011.24 1011.98 1012.03 1012.55 1011.27 1011.36 1010.29 1010.23 1010.23 1009.92 1009.71 1009.40 1008.92 1008.44 1007.79 1007.39 1006.95 1006.87 1006.78 1006.07 1005.41 1004.96 1004.92 1004.46 1003.82 1004.51 1005.04 1004.49 1004.72 1004.98 1005.64 1005.52 1005.89 1005.52 1007.53 1007.63 1007.00 1007.05 1007.40
1012.71 1011.91 1011.62 1011.33 1010.70 1010.73 1010.66 1010.78 1010.89 1010.82 1010.60 1009.95 1009.92 1009.96 1009.74 1009.62 1009.45 1009.06 1008.52 1007.91 1007.44 1006.71 1006.36 1006.06 1005.86 1005.37 1004.77 1004.86 1004.18 1003.90 1004.12 1004.47 1005.13 1005.47 1005.24 1005.56 1006.01 1005.86 1006.54 1007.05 1007.03 1006.80 1007.15 1007.10
1012.92 1012.09 1011.69 1011.06 1009.77 1009.60 1009.74 1010.00 1010.38 1010.54 1010.06 1010.04 1009.96 1009.97 1009.79 1009.65 1009.47 1009.03 1008.49 1007.96 1007.50 1006.82 1006.49 1006.17 1005.74 1005.22 1005.30 1005.08 1004.52 1003.62 1003.98 1004.57 1005.18 1005.53 1005.50 1005.43 1005.47 1006.06 1006.55 1006.82 1006.55 1006.38 1006.41 1007.06
1013.58 1012.67 1011.89 1010.10 1009.53 1009.32 1009.50 1009.60 1009.69 1009.79 1009.78 1009.91 1009.99 1009.96 1009.92 1009.75 1009.38 1008.66 1008.18 1007.79 1007.45 1006.98 1006.69 1006.36 1006.05 1005.84 1005.77 1005.36 1005.28 1005.24 1004.77 1005.06 1005.39 1005.59 1005.77 1005.90 1005.93 1005.99 1005.73 1005.54 1005.34 1005.78 1005.83 1006.02
1014.25 1013.18 1011.55 1010.07 1009.49 1009.35 1009.44 1009.36 1009.04 1009.36 1009.42 1009.50 1009.70 1009.70 1009.81 1009.70 1009.31 1008.55 1007.73 1007.47 1007.22 1007.29 1007.11 1006.84 1006.47 1006.40 1006.26 1006.08 1006.22 1006.06 1006.08 1006.06 1005.42 1005.31 1005.07 1005.04 1004.78 1004.62 1004.70 1004.50 1004.66 1005.09 1004.83 1005.18
1014.41 1013.33 1011.79 1010.16 1009.61 1009.54 1009.85 1009.50 1009.02 1009.40 1009.59 1009.79 1009.89 1009.96 1009.85 1009.73 1009.66 1008.75 1007.09 1007.76 1007.68 1007.71 1007.38 1006.91 1006.73 1006.22 1006.29 1006.47 1006.18 1006.15 1006.04 1006.05 1005.61 1005.13 1004.61 1004.58 1004.50 1004.35 1004.23 1004.29 1004.60 1004.77 1004.86 1004.93
1013.96 1013.03 1011.38 1010.21 1009.77 1009.88 1010.27 1010.17 1009.06 1009.21 1009.29 1009.60 1010.02 1009.75 1009.47 1009.63 1009.59 1009.14 1009.00 1008.68 1008.37 1008.13 1007.94 1007.84 1007.20 1007.13 1007.09 1006.91 1006.84 1006.61 1005.90 1005.85 1005.39 1005.07 1004.97 1004.76 1004.64 1004.90 1004.85 1004.85 1004.70 1004.87 1004.87 1004.49
1014.02 1012.84 1011.21 1009.80 1009.89 1010.02 1009.68 1009.39 1009.37 1009.40 1009.32 1009.33 1009.36 1009.38 1009.37 1009.64 1009.59 1009.46 1009.46 1008.88 1008.65 1008.67 1008.41 1008.38 1007.94 1007.75 1007.32 1007.16 1007.24 1006.82 1006.47 1006.25 1005.81 1005.80 1005.67 1005.61 1005.74 1005.55 1005.38 1005.12 1005.21 1005.18 1005.18 1005.45
1013.55 1011.85 1010.50 1009.93 1009.64 1009.29 1009.09 1009.45 1009.64 1009.56 1009.26 1009.09 1009.20 1009.17 1009.23 1009.30 1009.30 1009.48 1009.45 1009.16 1008.94 1008.85 1008.66 1008.66 1008.50 1008.31 1008.17 1008.04 1007.80 1007.75 1007.34 1007.02 1006.63 1006.46 1006.32 1006.46 1006.39 1006.30 1005.89 1005.94 1006.04 1005.67 1005.79 1005.65
1012.96 1011.06 1010.39 1009.61 1009.19 1009.06 1008.81 1009.05 1009.45 1009.37 1009.19 1009.04 1009.02 1008.88 1009.09 1009.14 1009.06 1009.18 1009.31 1009.23 1008.85 1008.81 1008.73 1008.68 1008.71 1008.76 1008.66 1008.57 1008.33 1008.00 1007.79 1007.57 1007.10 1007.02 1006.72 1006.64 1006.34 1006.50 1006.29 1006.38 1006.10 1005.79 1006.02 1006.36
1012.31 1010.98 1010.05 1008.93 1008.60 1008.31 1008.48 1009.13 1009.13 1009.01 1008.92 1008.86 1008.67 1008.69 1008.76 1008.75 1008.90 1008.93 1009.17 1009.05 1008.97 1008.77 1008.65 1008.51 1008.63 1008.70 1008.80 1008.67 1008.51 1008.43 1008.28 1008.12 1007.87 1007.47 1007.08 1006.61 1006.63 1006.66 1006.30 1006.37 1006.33 1006.38 1006.72 1006.75
1011.34 1010.40 1010.27 1009.23 1008.70 1008.38 1008.49 1008.54 1008.70 1008.76 1008.76 1008.52 1008.42 1008.34 1008.60 1008.69 1008.85 1008.90 1008.83 1008.68 1008.85 1008.88 1008.79 1008.75 1008.71 1008.62 1008.47 1008.41 1008.52 1008.69 1008.69 1008.46 1008.27 1007.94 1007.74 1007.59 1007.10 1006.41 1006.65 1006.63 1006.69 1006.61 1006.61 1006.66
1009.81 1009.16 1009.20 1008.45 1008.26 1008.16 1008.29 1008.23 1008.40 1008.55 1008.42 1008.16 1007.98 1008.09 1008.40 1008.19 1008.50 1008.74 1008.74 1008.80 1008.87 1008.73 1008.66 1008.70 1008.67 1008.67 1008.77 1008.83 1008.89 1009.05 1008.86 1008.66 1008.25 1007.91 1007.64 1007.53 1007.18 1006.98 1007.01 1006.76 1006.76 1006.98 1007.04 1006.91
1009.20 1009.28 1008.74 1007.78 1007.65 1007.58 1007.94 1008.08 1008.24 1008.38 1008.10 1007.94 1007.89 1007.98 1008.13 1008.23 1008.43 1008.48 1008.58 1008.56 1008.62 1008.74 1008.75 1008.77 1008.86 1008.97 1009.15 1009.18 1009.15 1009.10 1008.87 1008.64 1008.42 1008.30 1008.15 1007.70 1007.51 1007.11 1006.90 1007.02 1006.97 1006.99 1007.23 1007.33
1008.26 1008.36 1008.04 1007.80 1007.72 1007.81 1007.97 1008.22 1008.39 1008.39 1008.17 1007.99 1007.88 1008.04 1008.06 1008.40 1008.59 1008.22 1008.21 1008.40 1008.55 1008.75 1008.90 1009.05 1009.15 1009.20 1009.20 1009.15 1009.07 1008.98 1008.78 1008.71 1008.38 1008.16 1007.96 1007.59 1007.23 1007.13 1007.22 1007.25 1007.46 1007.44 1007.42 1007.39
1008.20 1007.92 1007.84 1007.92 1007.80 1007.89 1007.97 1008.15 1008.42 1008.40 1008.11 1007.98 1007.82 1007.79 1008.09 1008.24 1008.33 1008.22 1008.29 1008.38 1008.63 1008.82 1008.84 1008.93 1009.04 1008.99 1009.12 1009.23 1009.23 1009.18 1009.08 1008.85 1008.49 1007.93 1007.58 1007.45 1007.28 1007.25 1007.63 1007.64 1007.38 1007.07 1006.88 1007.24
1008.65 1008.50 1008.41 1008.29 1008.31 1008.45 1008.56 1008.49 1008.26 1008.18 1008.32 1008.02 1007.94 1007.96 1007.88 1008.11 1008.33 1008.52 1008.42 1008.48 1008.49 1008.54 1008.51 1008.49 1008.44 1008.56 1008.72 1008.78 1008.83 1008.73 1008.67 1008.52 1008.39 1008.25 1008.16 1008.18 1008.11 1007.85 1007.55 1007.35 1007.06 1006.84 1006.87 1006.89
1008.86 1008.75 1008.34 1008.20 1007.98 1008.09 1008.25 1008.22 1008.19 1008.10 1008.18 1008.08 1007.93 1008.06 1007.83 1007.83 1008.06 1008.32 1008.40 1008.32 1008.52 1008.51 1008.21 1008.10 1008.12 1008.23 1008.31 1008.33 1008.41 1008.43 1008.35 1008.29 1008.20 1008.18 1007.99 1007.69 1007.48 1007.38 1007.01 1006.59 1006.38 1006.36 1006.56 1006.74
1008.68 1008.50 1008.08 1008.12 1008.09 1008.04 1008.08 1008.06 1008.08 1007.93 1007.90 1008.07 1007.88 1007.74 1008.06 1007.99 1008.19 1008.36 1008.27 1008.32 1008.45 1008.36 1007.98 1007.69 1007.72 1007.91 1008.11 1008.07 1008.06 1008.11 1008.17 1008.20 1008.13 1007.99 1007.80 1007.56 1007.27 1006.95 1006.74 1006.55 1006.26 1005.81 1005.82 1005.91
1008.65 1008.31 1008.11 1008.07 1008.05 1008.07 1008.19 1008.11 1007.99 1007.96 1008.01 1007.92 1007.66 1008.10 1008.22 1008.22 1008.43 1008.47 1008.57 1008.54 1008.67 1008.58 1008.04 1007.79 1007.84 1008.00 1007.97 1008.06 1007.96 1007.92 1007.96 1008.07 1008.05 1007.81 1007.57 1007.35 1007.05 1006.62 1006.28 1006.01 1005.64 1005.21 1004.94 1004.82
1008.89 1008.51 1008.04 1008.05 1007.96 1008.08 1008.08 1007.71 1007.84 1007.62 1007.79 1007.67 1007.90 1008.20 1008.43 1008.53 1008.41 1008.57 1008.69 1008.65 1008.64 1008.35 1007.98 1007.73 1007.95 1008.10 1008.13 1007.90 1007.77 1007.67 1007.58 1007.54 1007.48 1007.37 1007.14 1006.94 1006.71 1006.18 1005.74 1005.35 1004.94 1004.60 1004.36 1004.30
1008.97 1008.64 1008.34 1008.14 1008.08 1008.01 1007.92 1007.57 1007.45 1007.51 1007.45 1007.75 1008.10 1008.19 1008.38 1008.65 1008.72 1008.65 1008.74 1009.12 1008.84 1008.68 1008.44 1008.45 1008.56 1008.53 1008.32 1008.02 1007.92 1007.73 1007.69 1007.60 1007.50 1007.39 1007.18 1006.89 1006.53 1006.18 1005.62 1005.04 1004.67 1004.36 1004.14 1003.81
1009.29 1009.00 1008.65 1008.59 1008.46 1008.37 1008.50 1008.37 1008.21 1008.10 1008.13 1008.14 1008.21 1008.47 1008.88 1008.96 1009.01 1009.01 1009.25 1009.40 1009.17 1008.95 1008.86 1008.94 1008.89 1008.60 1008.40 1008.19 1007.97 1007.81 1007.68 1007.57 1007.42 1007.18 1006.95 1006.71 1006.41 1006.05 1005.72 1005.33 1004.99 1004.60 1004.14 1003.79
1009.69 1009.44 1009.20 1009.02 1008.96 1008.88 1009.12 1008.70 1008.67 1008.47 1008.77 1008.90 1008.85 1009.11 1009.12 1009.18 1009.53 1009.57 1009.63 1009.71 1009.50 1009.19 1009.12 1009.24 1008.93 1008.70 1008.49 1008.27 1008.09 1007.97 1007.80 1007.60 1007.42 1007.26 1007.03 1006.76 1006.44 1006.07 1005.67 1005.32 1004.97 1004.69 1004.41 1004.15
1010.16 1009.98 1009.79 1009.66 1009.55 1009.67 1009.54 1009.42 1009.25 1009.20 1009.96 1010.02 1010.04 1010.04 1009.82 1009.86 1010.02 1010.40 1010.19 1010.10 1010.05 1009.89 1009.88 1009.91 1009.64 1009.37 1009.16 1008.94 1008.69 1008.44 1008.26 1008.10 1007.95 1007.66 1007.23 1006.87 1006.44 1005.95 1005.52 1005.15 1004.91 1004.73 1004.50 1004.15
1010.29 1010.35 1010.33 1010.11 1009.99 1009.96 1010.14 1010.19 1010.11 1010.56 1010.80 1010.95 1010.98 1010.91 1010.74 1010.79 1010.78 1010.69 1010.70 1010.93 1010.97 1010.90 1010.89 1010.81 1010.62 1010.34 1010.12 1009.98 1009.76 1009.57 1009.33 1008.93 1008.53 1008.03 1007.58 1006.99 1006.54 1006.09 1005.63 1005.22 1004.91 1004.65 1004.60 1004.29
1010.59 1010.48 1010.53 1010.45 1010.40 1010.41 1010.40 1010.56 1010.70 1011.25 1011.56 1011.45 1011.61 1011.91 1011.79 1011.71 1011.69 1011.66 1011.69 1011.79 1011.89 1011.92 1011.89 1011.78 1011.61 1011.42 1011.25 1011.00 1010.66 1010.34 1010.00 1009.57 1009.16 1008.75 1008.14 1007.68 1007.12 1006.46 1005.98 1005.64 1005.37 1004.92 1004.70 1004.54
Wind_Speed
5 7 5 6 10 11 7 7 6 12 7 10 7 6 7 6 7 9 11 11 10 6 4 3 6 5 2 4 6 6 13 13 12 8 6 3 7 12 9 13 10 6 7 7
6 8 7 5 10 10 12 6 6 5 8 3 4 5 6 7 6 9 11 13 14 8 5 8 5 5 4 4 5 4 8 6 4 7 7 2 5 7 11 7 7 6 5 8
8 4 3 7 6 4 2 1 2 5 7 4 8 10 7 7 7 10 11 12 12 6 6 6 6 6 5 5 4 2 5 5 3 7 9 5 3 5 9 9 6 7 6 7
4 1 3 7 1 1 2 6 7 7 6 5 5 6 7 5 8 14 12 11 8 4 5 5 6 6 5 8 8 7 8 5 2 3 5 6 8 10 8 5 7 7 7 8
2 3 5 1 3 2 1 6 5 6 5 5 3 4 2 3 11 13 9 7 1 3 5 6 7 5 5 7 5 6 6 4 5 2 2 4 4 3 3 3 3 5 4 6
1 1 3 7 2 3 3 6 1 3 5 5 3 4 3 5 8 13 18 5 6 5 5 7 8 8 8 7 8 8 6 5 4 5 7 6 3 1 1 1 2 3 5 5
3 4 7 3 2 3 2 7 2 3 6 3 3 5 2 3 5 4 3 6 5 6 6 5 5 6 7 6 9 7 7 6 8 8 7 7 5 3 3 1 2 2 4 4
1 2 5 5 3 5 6 4 3 4 5 5 5 6 3 1 4 2 6 2 3 3 4 5 6 5 7 8 7 7 7 7 7 7 6 5 5 4 3 2 2 2 5 5
7 7 4 4 7 5 3 4 4 4 5 4 5 3 2 4 8 7 7 3 3 0 4 4 5 5 6 5 6 6 6 6 6 6 5 4 4 4 3 4 3 4 4 5
2 4 6 7 6 7 5 5 3 4 5 4 5 4 3 2 5 8 4 5 4 1 2 4 4 4 4 4 5 5 6 7 6 5 5 4 3 2 2 3 3 4 5 4
6 8 9 5 6 8 2 2 2 2 2 5 5 4 3 3 3 6 7 5 3 2 1 2 3 3 2 3 3 4 4 4 4 3 4 5 4 2 1 0 1 3 2 4
7 7 6 9 6 4 5 4 2 2 4 4 3 3 2 1 3 2 3 5 3 2 3 1 2 4 3 5 5 4 3 3 3 2 2 2 2 3 5 3 4 3 4 3
7 5 7 10 5 4 5 5 5 3 3 1 2 4 3 4 2 4 3 4 4 4 2 0 1 1 3 4 3 3 4 4 3 2 3 3 3 3 2 1 2 3 4 6
9 2 8 8 7 8 5 6 5 2 1 3 1 1 3 3 3 5 3 3 4 2 1 2 3 2 2 4 3 3 3 5 2 2 2 3 3 3 1 1 3 3 2 1
13 8 11 2 2 5 5 4 4 2 2 4 4 3 3 0 2 3 4 3 4 3 1 1 2 4 2 2 2 4 3 3 3 2 3 3 3 4 3 2 1 2 2 1
6 4 3 6 6 6 6 5 4 5 4 3 5 6 1 3 4 3 3 5 3 3 3 2 3 3 2 1 1 1 2 4 3 3 4 4 4 4 3 3 3 2 1 1
5 5 5 4 2 1 2 3 5 5 1 3 5 2 0 3 2 3 1 1 3 4 3 2 3 2 2 2 2 1 2 3 4 2 2 2 2 3 3 3 2 3 2 2
2 5 7 5 5 4 4 5 4 3 3 1 3 4 3 4 3 3 4 2 3 4 4 4 3 3 3 2 2 2 2 2 3 3 4 4 5 4 5 5 4 4 3 2
4 7 4 4 4 4 4 3 2 3 2 1 2 3 1 3 2 2 1 2 2 4 4 3 5 4 3 4 4 2 2 3 4 4 4 6 6 5 5 5 6 6 5 4
5 7 4 3 3 2 4 4 4 2 3 2 5 2 4 5 3 3 3 2 2 4 7 6 2 1 3 3 3 1 1 3 4 5 5 5 5 7 6 7 7 7 6 5
6 6 3 1 1 3 1 2 0 4 2 5 5 3 5 3 3 1 0 4 5 7 5 5 4 2 3 3 2 2 3 4 4 5 6 6 7 7 6 7 7 7 7 7
4 6 6 4 4 4 5 6 5 3 5 5 3 4 3 2 3 2 3 3 5 6 3 4 5 8 6 6 5 5 5 5 5 5 6 6 7 8 9 7 6 6 6 7
5 5 5 5 2 5 3 5 5 4 4 4 4 4 4 3 3 4 5 8 4 7 6 6 8 10 8 5 5 6 6 6 6 6 6 7 7 7 7 8 8 6 7 7
5 6 5 5 5 7 5 7 6 6 10 6 8 5 3 4 6 4 3 4 6 8 7 9 10 12 9 6 7 6 6 7 7 7 8 8 8 8 8 8 7 7 7 9
4 4 6 7 10 7 8 7 9 12 7 7 7 6 8 6 4 2 4 5 10 8 7 12 14 13 7 8 9 8 7 6 6 6 7 8 9 9 8 8 6 5 5 5
3 3 2 3 3 3 5 6 7 5 5 4 6 5 6 5 5 5 6 9 9 11 9 8 9 9 9 9 9 9 8 8 9 9 9 8 9 9 9 9 8 7 4 4
3 5 2 2 2 3 3 4 4 2 2 4 7 5 6 6 7 7 8 7 7 7 6 6 6 7 6 6 7 7 6 7 7 8 9 10 10 9 9 8 7 6 6 6
Wind_Direction
246 234 219 237 257 267 197 216 194 282 224 269 280 278 283 277 292 302 303 309 305 283 305 298 308 319 288 293 318 218 194 183 186 228 265 312 150 181 189 215 221 191 181 184
237 238 250 234 242 243 249 237 239 260 278 235 294 294 290 275 293 300 303 308 318 301 335 332 343 322 354 328 353 26 126 164 190 229 256 253 156 175 198 203 184 174 195 215
266 243 325 306 239 236 248 108 176 241 249 343 320 322 314 320 315 304 301 302 320 336 358 329 357 11 8 3 12 21 132 121 167 209 233 235 209 197 200 192 179 190 170 210
262 93 208 243 332 168 197 258 227 260 266 272 263 279 293 273 285 301 291 291 316 324 9 357 11 16 14 29 14 24 27 56 151 200 198 199 197 208 207 187 176 197 203 200
191 207 271 297 255 231 154 285 257 237 251 259 301 312 330 334 334 323 284 289 26 36 36 22 14 5 60 48 40 47 22 15 33 10 211 194 187 200 201 202 203 220 229 230
155 220 236 241 352 128 135 296 297 234 274 282 359 348 267 354 11 32 7 19 35 33 42 35 2 13 35 30 22 15 6 359 14 19 22 13 343 350 328 293 277 221 216 230
190 239 286 251 185 146 78 247 275 238 246 238 225 216 200 347 38 36 274 356 12 31 40 357 21 16 40 30 20 345 2 3 22 24 21 13 20 5 313 340 76 59 83 67
112 226 283 189 111 175 212 288 283 309 273 256 241 272 286 256 114 80 331 356 54 51 46 4 22 20 27 29 345 358 12 20 22 19 21 26 21 10 28 58 85 58 91 63
175 225 237 245 235 256 166 243 308 297 298 262 261 264 262 251 165 187 202 258 298 346 67 31 20 24 38 358 6 3 15 16 19 13 23 18 33 18 54 54 53 55 72 79
22 282 243 256 250 240 203 210 275 271 284 267 257 293 284 256 217 184 221 237 224 228 77 52 31 27 45 10 359 24 23 4 359 11 7 19 30 19 51 46 58 65 76 94
257 293 295 299 250 261 264 259 234 285 267 282 276 295 275 259 213 169 180 227 230 167 356 343 343 346 358 27 38 33 11 0 356 6 8 3 359 319 43 30 64 109 112 120
229 227 186 254 288 299 203 208 203 184 312 312 285 267 329 271 218 185 190 167 150 197 192 246 316 329 1 24 19 14 8 353 340 349 349 328 340 10 47 122 125 86 134 130
232 229 209 258 268 208 192 183 179 188 225 235 91 127 211 108 260 214 168 131 175 196 177 146 336 17 14 10 12 4 346 336 345 8 19 2 350 8 347 1 101 80 92 103
242 303 289 227 237 185 171 162 164 189 230 198 201 98 170 159 151 157 154 180 180 203 82 23 346 314 350 350 357 354 347 338 4 17 6 12 0 355 329 306 325 346 50 256
268 206 242 306 180 159 153 159 173 167 159 103 88 64 100 158 243 196 168 159 139 144 233 236 281 277 286 338 4 349 355 351 348 347 13 17 16 22 18 6 295 258 264 143
324 306 202 219 195 186 168 181 191 221 223 120 80 87 209 234 237 211 176 163 162 215 249 265 238 233 230 240 227 342 320 324 356 0 9 17 20 13 354 342 336 334 328 309
291 333 330 305 249 267 244 213 210 209 33 81 52 356 203 159 20 343 351 216 223 235 270 238 223 219 222 229 258 318 336 340 339 347 353 334 311 297 270 256 275 311 293 233
312 248 239 225 199 186 219 231 253 194 160 328 0 261 164 157 189 306 293 301 340 308 283 248 225 235 250 280 273 281 310 319 343 349 334 329 318 308 306 290 279 277 276 242
346 328 295 214 212 196 203 241 220 170 178 284 9 35 262 93 157 238 214 128 270 293 285 285 244 239 276 296 302 301 312 339 340 331 322 311 308 304 296 286 268 263 256 256
332 319 315 150 142 186 251 239 190 130 196 118 52 36 75 79 77 45 0 308 294 276 292 283 288 271 302 322 343 58 325 295 293 298 304 303 291 292 292 275 267 260 259 250
315 304 303 169 64 74 177 335 28 65 357 51 73 104 136 142 108 141 151 36 339 337 333 64 74 351 325 323 328 282 265 273 283 293 305 308 305 295 288 292 282 263 262 252
350 350 4 38 40 41 19 9 37 77 83 106 125 85 74 55 32 35 84 42 326 346 43 38 17 6 5 12 7 357 340 327 321 317 317 321 319 313 306 299 287 279 265 255
5 350 345 37 95 106 38 21 22 37 44 42 50 30 63 81 50 55 38 355 358 34 51 40 23 31 35 32 25 17 8 359 348 349 346 343 339 336 329 329 327 320 315 308
10 8 16 33 62 71 33 24 30 66 41 28 48 36 69 86 55 35 35 346 17 43 41 22 19 19 18 17 15 12 7 360 350 340 338 331 329 328 328 331 340 354 356 355
39 41 64 63 60 50 40 38 55 43 50 51 54 50 56 45 84 20 36 34 30 33 31 17 18 14 15 10 6 1 354 351 345 337 336 332 331 328 330 334 341 348 353 12
48 69 77 77 87 75 66 34 54 35 29 43 48 35 42 34 36 41 42 37 42 40 40 30 26 27 27 23 20 17 10 3 360 350 339 336 334 334 333 330 335 338 328 337
34 46 74 57 35 73 99 96 60 24 175 105 77 38 48 48 47 53 50 46 43 41 34 26 23 24 19 14 11 4 0 358 358 356 357 354 345 336 337 350 343 338 345 350